Year,Month,Day,Hour,Minute,Value (Times are PST for temperature in C)
2013,08,22,00,00,16.20
2013,08,22,00,01,16.10
2013,08,22,00,02,16.10
2013,08,22,00,03,16.10
2013,08,22,00,04,16.10
2013,08,22,00,05,16.10
2013,08,22,00,06,16.10
2013,08,22,00,07,16.00
2013,08,22,00,08,16.00
2013,08,22,00,09,15.90
2013,08,22,00,10,15.90
2013,08,22,00,11,15.90
2013,08,22,00,12,15.90
2013,08,22,00,13,15.90
2013,08,22,00,14,15.80
2013,08,22,00,15,15.80
2013,08,22,00,16,15.80
2013,08,22,00,17,15.80
2013,08,22,00,18,15.70
2013,08,22,00,19,15.70
2013,08,22,00,20,15.70
2013,08,22,00,21,15.70
2013,08,22,00,22,15.70
2013,08,22,00,23,15.70
2013,08,22,00,24,15.60
2013,08,22,00,25,15.60
2013,08,22,00,26,15.60
2013,08,22,00,27,15.60
2013,08,22,00,28,15.60
2013,08,22,00,29,15.60
2013,08,22,00,30,15.50
2013,08,22,00,31,15.50
2013,08,22,00,32,15.50
2013,08,22,00,33,15.50
2013,08,22,00,34,15.40
2013,08,22,00,35,15.40
2013,08,22,00,36,15.40
2013,08,22,00,37,15.40
2013,08,22,00,38,15.40
2013,08,22,00,39,15.40
2013,08,22,00,40,15.40
2013,08,22,00,41,15.40
2013,08,22,00,42,15.40
2013,08,22,00,43,15.40
2013,08,22,00,44,15.40
2013,08,22,00,45,15.40
2013,08,22,00,46,15.40
2013,08,22,00,47,15.40
2013,08,22,00,48,15.40
2013,08,22,00,49,15.30
2013,08,22,00,50,15.30
2013,08,22,00,51,15.30
2013,08,22,00,52,15.30
2013,08,22,00,53,15.30
2013,08,22,00,54,15.30
2013,08,22,00,55,15.20
2013,08,22,00,56,15.20
2013,08,22,00,57,15.20
2013,08,22,00,58,15.20
2013,08,22,00,59,15.20
2013,08,22,01,00,15.20
2013,08,22,01,01,15.20
2013,08,22,01,02,15.20
2013,08,22,01,03,15.20
2013,08,22,01,04,15.10
2013,08,22,01,05,15.10
2013,08,22,01,06,15.10
2013,08,22,01,07,15.10
2013,08,22,01,08,15.10
2013,08,22,01,09,15.00
2013,08,22,01,10,15.00
2013,08,22,01,11,15.00
2013,08,22,01,12,15.00
2013,08,22,01,13,14.90
2013,08,22,01,14,14.90
2013,08,22,01,15,14.90
2013,08,22,01,16,14.90
2013,08,22,01,17,14.90
2013,08,22,01,18,14.90
2013,08,22,01,19,14.90
2013,08,22,01,20,14.80
2013,08,22,01,21,14.80
2013,08,22,01,22,14.80
2013,08,22,01,23,14.80
2013,08,22,01,24,14.80
2013,08,22,01,25,14.80
2013,08,22,01,26,14.70
2013,08,22,01,27,14.70
2013,08,22,01,28,14.70
2013,08,22,01,29,14.70
2013,08,22,01,30,14.70
2013,08,22,01,31,14.60
2013,08,22,01,32,14.60
2013,08,22,01,33,14.60
2013,08,22,01,34,14.60
2013,08,22,01,35,14.60
2013,08,22,01,36,14.60
2013,08,22,01,37,14.60
2013,08,22,01,38,14.60
2013,08,22,01,39,14.60
2013,08,22,01,40,14.60
2013,08,22,01,41,14.60
2013,08,22,01,42,14.60
2013,08,22,01,43,14.60
2013,08,22,01,44,14.60
2013,08,22,01,45,14.60
2013,08,22,01,46,14.60
2013,08,22,01,47,14.60
2013,08,22,01,48,14.60
2013,08,22,01,49,14.60
2013,08,22,01,50,14.60
2013,08,22,01,51,14.60
2013,08,22,01,52,14.60
2013,08,22,01,53,14.60
2013,08,22,01,54,14.50
2013,08,22,01,55,14.50
2013,08,22,01,56,14.50
2013,08,22,01,57,14.50
2013,08,22,01,58,14.40
2013,08,22,01,59,14.40
2013,08,22,02,00,14.40
2013,08,22,02,01,14.30
2013,08,22,02,02,14.30
2013,08,22,02,03,14.30
2013,08,22,02,04,14.30
2013,08,22,02,05,14.30
2013,08,22,02,06,14.30
2013,08,22,02,07,14.20
2013,08,22,02,08,14.20
2013,08,22,02,09,14.20
2013,08,22,02,10,14.20
2013,08,22,02,11,14.20
2013,08,22,02,12,14.20
2013,08,22,02,13,14.20
2013,08,22,02,14,14.20
2013,08,22,02,15,14.20
2013,08,22,02,16,14.20
2013,08,22,02,17,14.20
2013,08,22,02,18,14.20
2013,08,22,02,19,14.20
2013,08,22,02,20,14.20
2013,08,22,02,21,14.20
2013,08,22,02,22,14.20
2013,08,22,02,23,14.20
2013,08,22,02,24,14.20
2013,08,22,02,25,14.10
2013,08,22,02,26,14.10
2013,08,22,02,27,14.10
2013,08,22,02,28,14.10
2013,08,22,02,29,14.10
2013,08,22,02,30,14.10
2013,08,22,02,31,14.10
2013,08,22,02,32,14.10
2013,08,22,02,33,14.10
2013,08,22,02,34,14.10
2013,08,22,02,35,14.10
2013,08,22,02,36,14.10
2013,08,22,02,37,14.00
2013,08,22,02,38,14.00
2013,08,22,02,39,14.00
2013,08,22,02,40,14.00
2013,08,22,02,41,14.00
2013,08,22,02,42,13.90
2013,08,22,02,43,13.90
2013,08,22,02,44,13.90
2013,08,22,02,45,13.90
2013,08,22,02,46,13.90
2013,08,22,02,47,13.90
2013,08,22,02,48,13.90
2013,08,22,02,49,13.90
2013,08,22,02,50,13.90
2013,08,22,02,51,13.80
2013,08,22,02,52,13.80
2013,08,22,02,53,13.80
2013,08,22,02,54,13.80
2013,08,22,02,55,13.80
2013,08,22,02,56,13.80
2013,08,22,02,57,13.80
2013,08,22,02,58,13.80
2013,08,22,02,59,13.80
2013,08,22,03,00,13.80
2013,08,22,03,01,13.80
2013,08,22,03,02,13.80
2013,08,22,03,03,13.80
2013,08,22,03,04,13.80
2013,08,22,03,05,13.80
2013,08,22,03,06,13.80
2013,08,22,03,07,13.80
2013,08,22,03,08,13.80
2013,08,22,03,09,13.80
2013,08,22,03,10,13.80
2013,08,22,03,11,13.80
2013,08,22,03,12,13.80
2013,08,22,03,13,13.80
2013,08,22,03,14,13.80
2013,08,22,03,15,13.80
2013,08,22,03,16,13.80
2013,08,22,03,17,13.80
2013,08,22,03,18,13.80
2013,08,22,03,19,13.80
2013,08,22,03,20,13.80
2013,08,22,03,21,13.90
2013,08,22,03,22,13.90
2013,08,22,03,23,13.90
2013,08,22,03,24,13.90
2013,08,22,03,25,13.80
2013,08,22,03,26,13.80
2013,08,22,03,27,13.80
2013,08,22,03,28,13.80
2013,08,22,03,29,13.80
2013,08,22,03,30,13.80
2013,08,22,03,31,13.70
2013,08,22,03,32,13.70
2013,08,22,03,33,13.70
2013,08,22,03,34,13.70
2013,08,22,03,35,13.70
2013,08,22,03,36,13.60
2013,08,22,03,37,13.60
2013,08,22,03,38,13.60
2013,08,22,03,39,13.60
2013,08,22,03,40,13.60
2013,08,22,03,41,13.60
2013,08,22,03,42,13.50
2013,08,22,03,43,13.50
2013,08,22,03,44,13.50
2013,08,22,03,45,13.50
2013,08,22,03,46,13.40
2013,08,22,03,47,13.40
2013,08,22,03,48,13.40
2013,08,22,03,49,13.40
2013,08,22,03,50,13.30
2013,08,22,03,51,13.30
2013,08,22,03,52,13.30
2013,08,22,03,53,13.30
2013,08,22,03,54,13.20
2013,08,22,03,55,13.20
2013,08,22,03,56,13.20
2013,08,22,03,57,13.20
2013,08,22,03,58,13.20
2013,08,22,03,59,13.20
2013,08,22,04,00,13.20
2013,08,22,04,01,13.20
2013,08,22,04,02,13.20
2013,08,22,04,03,13.20
2013,08,22,04,04,13.20
2013,08,22,04,05,13.30
2013,08,22,04,06,13.30
2013,08,22,04,07,13.30
2013,08,22,04,08,13.30
2013,08,22,04,09,13.30
2013,08,22,04,10,13.30
2013,08,22,04,11,13.30
2013,08,22,04,12,13.30
2013,08,22,04,13,13.30
2013,08,22,04,14,13.30
2013,08,22,04,15,13.30
2013,08,22,04,16,13.30
2013,08,22,04,17,13.30
2013,08,22,04,18,13.30
2013,08,22,04,19,13.20
2013,08,22,04,20,13.20
2013,08,22,04,21,13.20
2013,08,22,04,22,13.20
2013,08,22,04,23,13.10
2013,08,22,04,24,13.10
2013,08,22,04,25,13.10
2013,08,22,04,26,13.10
2013,08,22,04,27,13.00
2013,08,22,04,28,13.00
2013,08,22,04,29,13.00
2013,08,22,04,30,13.00
2013,08,22,04,31,13.00
2013,08,22,04,32,12.90
2013,08,22,04,33,12.90
2013,08,22,04,34,12.90
2013,08,22,04,35,12.90
2013,08,22,04,36,12.90
2013,08,22,04,37,12.90
2013,08,22,04,38,12.90
2013,08,22,04,39,12.90
2013,08,22,04,40,12.90
2013,08,22,04,41,12.80
2013,08,22,04,42,12.80
2013,08,22,04,43,12.80
2013,08,22,04,44,12.80
2013,08,22,04,45,12.80
2013,08,22,04,46,12.80
2013,08,22,04,47,12.80
2013,08,22,04,48,12.80
2013,08,22,04,49,12.80
2013,08,22,04,50,12.80
2013,08,22,04,51,12.80
2013,08,22,04,52,12.80
2013,08,22,04,53,12.70
2013,08,22,04,54,12.70
2013,08,22,04,55,12.70
2013,08,22,04,56,12.70
2013,08,22,04,57,12.70
2013,08,22,04,58,12.70
2013,08,22,04,59,12.70
2013,08,22,05,00,12.70
2013,08,22,05,01,12.70
2013,08,22,05,02,12.70
2013,08,22,05,03,12.70
2013,08,22,05,04,12.70
2013,08,22,05,05,12.60
2013,08,22,05,06,12.60
2013,08,22,05,07,12.60
2013,08,22,05,08,12.60
2013,08,22,05,09,12.60
2013,08,22,05,10,12.60
2013,08,22,05,11,12.60
2013,08,22,05,12,12.60
2013,08,22,05,13,12.60
2013,08,22,05,14,12.60
2013,08,22,05,15,12.60
2013,08,22,05,16,12.60
2013,08,22,05,17,12.60
2013,08,22,05,18,12.60
2013,08,22,05,19,12.60
2013,08,22,05,20,12.60
2013,08,22,05,21,12.60
2013,08,22,05,22,12.50
2013,08,22,05,23,12.50
2013,08,22,05,24,12.50
2013,08,22,05,25,12.50
2013,08,22,05,26,12.50
2013,08,22,05,27,12.50
2013,08,22,05,28,12.50
2013,08,22,05,29,12.50
2013,08,22,05,30,12.50
2013,08,22,05,31,12.50
2013,08,22,05,32,12.50
2013,08,22,05,33,12.50
2013,08,22,05,34,12.40
2013,08,22,05,35,12.50
2013,08,22,05,36,12.50
2013,08,22,05,37,12.40
2013,08,22,05,38,12.40
2013,08,22,05,39,12.40
2013,08,22,05,40,12.40
2013,08,22,05,41,12.40
2013,08,22,05,42,12.40
2013,08,22,05,43,12.40
2013,08,22,05,44,12.40
2013,08,22,05,45,12.40
2013,08,22,05,46,12.40
2013,08,22,05,47,12.40
2013,08,22,05,48,12.30
2013,08,22,05,49,12.30
2013,08,22,05,50,12.30
2013,08,22,05,51,12.30
2013,08,22,05,52,12.30
2013,08,22,05,53,12.30
2013,08,22,05,54,12.30
2013,08,22,05,55,12.30
2013,08,22,05,56,12.20
2013,08,22,05,57,12.20
2013,08,22,05,58,12.20
2013,08,22,05,59,12.20
2013,08,22,06,00,12.20
2013,08,22,06,01,12.20
2013,08,22,06,02,12.20
2013,08,22,06,03,12.20
2013,08,22,06,04,12.20
2013,08,22,06,05,12.10
2013,08,22,06,06,12.10
2013,08,22,06,07,12.10
2013,08,22,06,08,12.10
2013,08,22,06,09,12.10
2013,08,22,06,10,12.10
2013,08,22,06,11,12.10
2013,08,22,06,12,12.10
2013,08,22,06,13,12.10
2013,08,22,06,14,12.10
2013,08,22,06,15,12.10
2013,08,22,06,16,12.10
2013,08,22,06,17,12.10
2013,08,22,06,18,12.10
2013,08,22,06,19,12.10
2013,08,22,06,20,12.10
2013,08,22,06,21,12.10
2013,08,22,06,22,12.10
2013,08,22,06,23,12.00
2013,08,22,06,24,12.00
2013,08,22,06,25,12.00
2013,08,22,06,26,12.00
2013,08,22,06,27,11.90
2013,08,22,06,28,11.90
2013,08,22,06,29,11.90
2013,08,22,06,30,11.90
2013,08,22,06,31,12.00
2013,08,22,06,32,12.00
2013,08,22,06,33,12.00
2013,08,22,06,34,12.00
2013,08,22,06,35,12.00
2013,08,22,06,36,12.00
2013,08,22,06,37,12.00
2013,08,22,06,38,12.00
2013,08,22,06,39,12.00
2013,08,22,06,40,12.00
2013,08,22,06,41,12.00
2013,08,22,06,42,12.00
2013,08,22,06,43,12.00
2013,08,22,06,44,12.00
2013,08,22,06,45,12.10
2013,08,22,06,46,12.10
2013,08,22,06,47,12.10
2013,08,22,06,48,12.10
2013,08,22,06,49,12.20
2013,08,22,06,50,12.20
2013,08,22,06,51,12.20
2013,08,22,06,52,12.20
2013,08,22,06,53,12.20
2013,08,22,06,54,12.20
2013,08,22,06,55,12.30
2013,08,22,06,56,12.30
2013,08,22,06,57,12.30
2013,08,22,06,58,12.40
2013,08,22,06,59,12.40
2013,08,22,07,00,12.40
2013,08,22,07,01,12.50
2013,08,22,07,02,12.50
2013,08,22,07,03,12.50
2013,08,22,07,04,12.60
2013,08,22,07,05,12.60
2013,08,22,07,06,12.60
2013,08,22,07,07,12.60
2013,08,22,07,08,12.70
2013,08,22,07,09,12.70
2013,08,22,07,10,12.70
2013,08,22,07,11,12.70
2013,08,22,07,12,12.70
2013,08,22,07,13,12.70
2013,08,22,07,14,12.70
2013,08,22,07,15,12.70
2013,08,22,07,16,12.80
2013,08,22,07,17,12.80
2013,08,22,07,18,12.80
2013,08,22,07,19,12.90
2013,08,22,07,20,12.90
2013,08,22,07,21,13.00
2013,08,22,07,22,13.00
2013,08,22,07,23,13.10
2013,08,22,07,24,13.10
2013,08,22,07,25,13.20
2013,08,22,07,26,13.20
2013,08,22,07,27,13.30
2013,08,22,07,28,13.30
2013,08,22,07,29,13.40
2013,08,22,07,30,13.50
2013,08,22,07,31,13.50
2013,08,22,07,32,13.60
2013,08,22,07,33,13.60
2013,08,22,07,34,13.70
2013,08,22,07,35,13.70
2013,08,22,07,36,13.70
2013,08,22,07,37,13.70
2013,08,22,07,38,13.80
2013,08,22,07,39,13.80
2013,08,22,07,40,13.90
2013,08,22,07,41,13.90
2013,08,22,07,42,14.00
2013,08,22,07,43,14.00
2013,08,22,07,44,14.10
2013,08,22,07,45,14.10
2013,08,22,07,46,14.20
2013,08,22,07,47,14.20
2013,08,22,07,48,14.30
2013,08,22,07,49,14.30
2013,08,22,07,50,14.30
2013,08,22,07,51,14.40
2013,08,22,07,52,14.40
2013,08,22,07,53,14.50
2013,08,22,07,54,14.60
2013,08,22,07,55,14.60
2013,08,22,07,56,14.70
2013,08,22,07,57,14.80
2013,08,22,07,58,14.90
2013,08,22,07,59,15.00
2013,08,22,08,00,15.10
2013,08,22,08,01,15.20
2013,08,22,08,02,15.30
2013,08,22,08,03,15.30
2013,08,22,08,04,15.40
2013,08,22,08,05,15.40
2013,08,22,08,06,15.50
2013,08,22,08,07,15.50
2013,08,22,08,08,15.60
2013,08,22,08,09,15.70
2013,08,22,08,10,15.70
2013,08,22,08,11,15.70
2013,08,22,08,12,15.80
2013,08,22,08,13,15.80
2013,08,22,08,14,15.90
2013,08,22,08,15,15.90
2013,08,22,08,16,16.00
2013,08,22,08,17,16.00
2013,08,22,08,18,16.10
2013,08,22,08,19,16.20
2013,08,22,08,20,16.30
2013,08,22,08,21,16.30
2013,08,22,08,22,16.40
2013,08,22,08,23,16.50
2013,08,22,08,24,16.60
2013,08,22,08,25,16.70
2013,08,22,08,26,16.80
2013,08,22,08,27,16.90
2013,08,22,08,28,16.90
2013,08,22,08,29,17.00
2013,08,22,08,30,17.10
2013,08,22,08,31,17.10
2013,08,22,08,32,17.10
2013,08,22,08,33,17.20
2013,08,22,08,34,17.20
2013,08,22,08,35,17.30
2013,08,22,08,36,17.30
2013,08,22,08,37,17.40
2013,08,22,08,38,17.50
2013,08,22,08,39,17.60
2013,08,22,08,40,17.60
2013,08,22,08,41,17.70
2013,08,22,08,42,17.70
2013,08,22,08,43,17.80
2013,08,22,08,44,17.80
2013,08,22,08,45,17.80
2013,08,22,08,46,17.90
2013,08,22,08,47,17.90
2013,08,22,08,48,18.00
2013,08,22,08,49,18.00
2013,08,22,08,50,18.10
2013,08,22,08,51,18.20
2013,08,22,08,52,18.20
2013,08,22,08,53,18.20
2013,08,22,08,54,18.30
2013,08,22,08,55,18.30
2013,08,22,08,56,18.40
2013,08,22,08,57,18.40
2013,08,22,08,58,18.50
2013,08,22,08,59,18.50
2013,08,22,09,00,18.60
2013,08,22,09,01,18.60
2013,08,22,09,02,18.60
2013,08,22,09,03,18.60
2013,08,22,09,04,18.60
2013,08,22,09,05,18.60
2013,08,22,09,06,18.70
2013,08,22,09,07,18.70
2013,08,22,09,08,18.70
2013,08,22,09,09,18.80
2013,08,22,09,10,18.80
2013,08,22,09,11,18.80
2013,08,22,09,12,18.80
2013,08,22,09,13,18.90
2013,08,22,09,14,18.90
2013,08,22,09,15,18.90
2013,08,22,09,16,19.00
2013,08,22,09,17,19.10
2013,08,22,09,18,19.10
2013,08,22,09,19,19.20
2013,08,22,09,20,19.30
2013,08,22,09,21,19.30
2013,08,22,09,22,19.30
2013,08,22,09,23,19.40
2013,08,22,09,24,19.40
2013,08,22,09,25,19.50
2013,08,22,09,26,19.50
2013,08,22,09,27,19.50
2013,08,22,09,28,19.60
2013,08,22,09,29,19.60
2013,08,22,09,30,19.60
2013,08,22,09,31,19.60
2013,08,22,09,32,19.70
2013,08,22,09,33,19.70
2013,08,22,09,34,19.70
2013,08,22,09,35,19.70
2013,08,22,09,36,19.80
2013,08,22,09,37,19.80
2013,08,22,09,38,19.80
2013,08,22,09,39,19.80
2013,08,22,09,40,19.80
2013,08,22,09,41,19.90
2013,08,22,09,42,19.90
2013,08,22,09,43,20.00
2013,08,22,09,44,20.00
2013,08,22,09,45,20.00
2013,08,22,09,46,20.00
2013,08,22,09,47,20.00
2013,08,22,09,48,20.00
2013,08,22,09,49,20.10
2013,08,22,09,50,20.10
2013,08,22,09,51,20.10
2013,08,22,09,52,20.20
2013,08,22,09,53,20.20
2013,08,22,09,54,20.30
2013,08,22,09,55,20.30
2013,08,22,09,56,20.40
2013,08,22,09,57,20.40
2013,08,22,09,58,20.40
2013,08,22,09,59,20.50
2013,08,22,10,00,20.60
2013,08,22,10,01,20.60
2013,08,22,10,02,20.60
2013,08,22,10,03,20.70
2013,08,22,10,04,20.70
2013,08,22,10,05,20.80
2013,08,22,10,06,20.90
2013,08,22,10,07,20.90
2013,08,22,10,08,21.00
2013,08,22,10,09,21.00
2013,08,22,10,10,21.10
2013,08,22,10,11,21.20
2013,08,22,10,12,21.20
2013,08,22,10,13,21.30
2013,08,22,10,14,21.30
2013,08,22,10,15,21.30
2013,08,22,10,16,21.30
2013,08,22,10,17,21.40
2013,08,22,10,18,21.30
2013,08,22,10,19,21.30
2013,08,22,10,20,21.30
2013,08,22,10,21,21.40
2013,08,22,10,22,21.40
2013,08,22,10,23,21.40
2013,08,22,10,24,21.40
2013,08,22,10,25,21.40
2013,08,22,10,26,21.40
2013,08,22,10,27,21.50
2013,08,22,10,28,21.50
2013,08,22,10,29,21.60
2013,08,22,10,30,21.60
2013,08,22,10,31,21.60
2013,08,22,10,32,21.70
2013,08,22,10,33,21.70
2013,08,22,10,34,21.70
2013,08,22,10,35,21.80
2013,08,22,10,36,21.90
2013,08,22,10,37,21.90
2013,08,22,10,38,22.00
2013,08,22,10,39,22.00
2013,08,22,10,40,22.00
2013,08,22,10,41,22.00
2013,08,22,10,42,22.00
2013,08,22,10,43,22.10
2013,08,22,10,44,22.10
2013,08,22,10,45,22.10
2013,08,22,10,46,22.10
2013,08,22,10,47,22.20
2013,08,22,10,48,22.20
2013,08,22,10,49,22.20
2013,08,22,10,50,22.20
2013,08,22,10,51,22.30
2013,08,22,10,52,22.30
2013,08,22,10,53,22.40
2013,08,22,10,54,22.50
2013,08,22,10,55,22.60
2013,08,22,10,56,22.70
2013,08,22,10,57,22.80
2013,08,22,10,58,22.80
2013,08,22,10,59,22.90
2013,08,22,11,00,22.90
2013,08,22,11,01,22.90
2013,08,22,11,02,22.90
2013,08,22,11,03,22.90
2013,08,22,11,04,22.90
2013,08,22,11,05,22.90
2013,08,22,11,06,23.00
2013,08,22,11,07,23.10
2013,08,22,11,08,23.10
2013,08,22,11,09,23.20
2013,08,22,11,10,23.20
2013,08,22,11,11,23.30
2013,08,22,11,12,23.30
2013,08,22,11,13,23.30
2013,08,22,11,14,23.30
2013,08,22,11,15,23.40
2013,08,22,11,16,23.40
2013,08,22,11,17,23.50
2013,08,22,11,18,23.50
2013,08,22,11,19,23.60
2013,08,22,11,20,23.60
2013,08,22,11,21,23.70
2013,08,22,11,22,23.80
2013,08,22,11,23,23.90
2013,08,22,11,24,24.00
2013,08,22,11,25,24.00
2013,08,22,11,26,24.10
2013,08,22,11,27,24.10
2013,08,22,11,28,24.20
2013,08,22,11,29,24.20
2013,08,22,11,30,24.30
2013,08,22,11,31,24.40
2013,08,22,11,32,24.50
2013,08,22,11,33,24.50
2013,08,22,11,34,24.50
2013,08,22,11,35,24.50
2013,08,22,11,36,24.60
2013,08,22,11,37,24.50
2013,08,22,11,38,24.50
2013,08,22,11,39,24.60
2013,08,22,11,40,24.60
2013,08,22,11,41,24.60
2013,08,22,11,42,24.70
2013,08,22,11,43,24.70
2013,08,22,11,44,24.70
2013,08,22,11,45,24.70
2013,08,22,11,46,24.70
2013,08,22,11,47,24.70
2013,08,22,11,48,24.60
2013,08,22,11,49,24.60
2013,08,22,11,50,24.50
2013,08,22,11,51,24.30
2013,08,22,11,52,24.10
2013,08,22,11,53,24.00
2013,08,22,11,54,23.90
2013,08,22,11,55,23.90
2013,08,22,11,56,23.90
2013,08,22,11,57,24.00
2013,08,22,11,58,24.10
2013,08,22,11,59,24.10
2013,08,22,12,00,24.20
2013,08,22,12,01,24.20
2013,08,22,12,02,24.30
2013,08,22,12,03,24.30
2013,08,22,12,04,24.30
2013,08,22,12,05,24.40
2013,08,22,12,06,24.40
2013,08,22,12,07,24.40
2013,08,22,12,08,24.30
2013,08,22,12,09,24.30
2013,08,22,12,10,24.30
2013,08,22,12,11,24.40
2013,08,22,12,12,24.40
2013,08,22,12,13,24.50
2013,08,22,12,14,24.60
2013,08,22,12,15,24.60
2013,08,22,12,16,24.60
2013,08,22,12,17,24.70
2013,08,22,12,18,24.70
2013,08,22,12,19,24.80
2013,08,22,12,20,24.80
2013,08,22,12,21,24.80
2013,08,22,12,22,24.80
2013,08,22,12,23,24.80
2013,08,22,12,24,24.80
2013,08,22,12,25,24.80
2013,08,22,12,26,24.80
2013,08,22,12,27,24.80
2013,08,22,12,28,24.80
2013,08,22,12,29,24.80
2013,08,22,12,30,24.70
2013,08,22,12,31,24.70
2013,08,22,12,32,24.60
2013,08,22,12,33,24.60
2013,08,22,12,34,24.60
2013,08,22,12,35,24.60
2013,08,22,12,36,24.70
2013,08,22,12,37,24.70
2013,08,22,12,38,24.60
2013,08,22,12,39,24.50
2013,08,22,12,40,24.50
2013,08,22,12,41,24.50
2013,08,22,12,42,24.50
2013,08,22,12,43,24.60
2013,08,22,12,44,24.60
2013,08,22,12,45,24.60
2013,08,22,12,46,24.70
2013,08,22,12,47,24.70
2013,08,22,12,48,24.70
2013,08,22,12,49,24.70
2013,08,22,12,50,24.70
2013,08,22,12,51,24.70
2013,08,22,12,52,24.80
2013,08,22,12,53,24.90
2013,08,22,12,54,25.00
2013,08,22,12,55,25.20
2013,08,22,12,56,25.30
2013,08,22,12,57,25.40
2013,08,22,12,58,25.50
2013,08,22,12,59,25.50
2013,08,22,13,00,25.50
2013,08,22,13,01,25.50
2013,08,22,13,02,25.40
2013,08,22,13,03,25.40
2013,08,22,13,04,25.30
2013,08,22,13,05,25.30
2013,08,22,13,06,25.30
2013,08,22,13,07,25.30
2013,08,22,13,08,25.30
2013,08,22,13,09,25.20
2013,08,22,13,10,25.10
2013,08,22,13,11,24.90
2013,08,22,13,12,24.80
2013,08,22,13,13,24.70
2013,08,22,13,14,24.70
2013,08,22,13,15,24.60
2013,08,22,13,16,24.50
2013,08,22,13,17,24.40
2013,08,22,13,18,24.40
2013,08,22,13,19,24.40
2013,08,22,13,20,24.40
2013,08,22,13,21,24.60
2013,08,22,13,22,24.70
2013,08,22,13,23,24.80
2013,08,22,13,24,24.80
2013,08,22,13,25,24.80
2013,08,22,13,26,24.80
2013,08,22,13,27,24.90
2013,08,22,13,28,24.90
2013,08,22,13,29,25.00
2013,08,22,13,30,25.10
2013,08,22,13,31,25.10
2013,08,22,13,32,25.10
2013,08,22,13,33,25.10
2013,08,22,13,34,25.00
2013,08,22,13,35,24.90
2013,08,22,13,36,24.80
2013,08,22,13,37,24.70
2013,08,22,13,38,24.70
2013,08,22,13,39,24.70
2013,08,22,13,40,24.70
2013,08,22,13,41,24.60
2013,08,22,13,42,24.60
2013,08,22,13,43,24.60
2013,08,22,13,44,24.70
2013,08,22,13,45,24.70
2013,08,22,13,46,24.70
2013,08,22,13,47,24.80
2013,08,22,13,48,24.80
2013,08,22,13,49,24.70
2013,08,22,13,50,24.70
2013,08,22,13,51,24.70
2013,08,22,13,52,24.70
2013,08,22,13,53,24.70
2013,08,22,13,54,24.80
2013,08,22,13,55,24.90
2013,08,22,13,56,25.00
2013,08,22,13,57,25.20
2013,08,22,13,58,25.30
2013,08,22,13,59,25.30
2013,08,22,14,00,25.40
2013,08,22,14,01,25.40
2013,08,22,14,02,25.40
2013,08,22,14,03,25.40
2013,08,22,14,04,25.40
2013,08,22,14,05,25.40
2013,08,22,14,06,25.40
2013,08,22,14,07,25.40
2013,08,22,14,08,25.40
2013,08,22,14,09,25.30
2013,08,22,14,10,25.30
2013,08,22,14,11,25.30
2013,08,22,14,12,25.20
2013,08,22,14,13,25.20
2013,08,22,14,14,25.30
2013,08,22,14,15,25.30
2013,08,22,14,16,25.30
2013,08,22,14,17,25.40
2013,08,22,14,18,25.30
2013,08,22,14,19,25.30
2013,08,22,14,20,25.30
2013,08,22,14,21,25.30
2013,08,22,14,22,25.30
2013,08,22,14,23,25.30
2013,08,22,14,24,25.40
2013,08,22,14,25,25.40
2013,08,22,14,26,25.40
2013,08,22,14,27,25.40
2013,08,22,14,28,25.30
2013,08,22,14,29,25.20
2013,08,22,14,30,25.10
2013,08,22,14,31,25.10
2013,08,22,14,32,25.00
2013,08,22,14,33,25.00
2013,08,22,14,34,24.90
2013,08,22,14,35,24.90
2013,08,22,14,36,24.90
2013,08,22,14,37,24.90
2013,08,22,14,38,24.80
2013,08,22,14,39,24.70
2013,08,22,14,40,24.50
2013,08,22,14,41,24.50
2013,08,22,14,42,24.50
2013,08,22,14,43,24.60
2013,08,22,14,44,24.50
2013,08,22,14,45,24.40
2013,08,22,14,46,24.20
2013,08,22,14,47,24.10
2013,08,22,14,48,23.90
2013,08,22,14,49,23.80
2013,08,22,14,50,23.90
2013,08,22,14,51,24.00
2013,08,22,14,52,24.10
2013,08,22,14,53,24.10
2013,08,22,14,54,24.20
2013,08,22,14,55,24.20
2013,08,22,14,56,24.30
2013,08,22,14,57,24.30
2013,08,22,14,58,24.40
2013,08,22,14,59,24.40
2013,08,22,15,00,24.50
2013,08,22,15,01,24.50
2013,08,22,15,02,24.50
2013,08,22,15,03,24.50
2013,08,22,15,04,24.60
2013,08,22,15,05,24.70
2013,08,22,15,06,24.90
2013,08,22,15,07,25.00
2013,08,22,15,08,25.00
2013,08,22,15,09,25.00
2013,08,22,15,10,25.00
2013,08,22,15,11,25.10
2013,08,22,15,12,25.20
2013,08,22,15,13,25.30
2013,08,22,15,14,25.40
2013,08,22,15,15,25.50
2013,08,22,15,16,25.60
2013,08,22,15,17,25.70
2013,08,22,15,18,25.80
2013,08,22,15,19,26.00
2013,08,22,15,20,26.10
2013,08,22,15,21,26.10
2013,08,22,15,22,26.20
2013,08,22,15,23,26.20
2013,08,22,15,24,26.30
2013,08,22,15,25,26.40
2013,08,22,15,26,26.50
2013,08,22,15,27,26.50
2013,08,22,15,28,26.60
2013,08,22,15,29,26.70
2013,08,22,15,30,26.80
2013,08,22,15,31,26.80
2013,08,22,15,32,26.90
2013,08,22,15,33,26.90
2013,08,22,15,34,26.90
2013,08,22,15,35,27.00
2013,08,22,15,36,27.00
2013,08,22,15,37,27.00
2013,08,22,15,38,26.90
2013,08,22,15,39,26.90
2013,08,22,15,40,26.80
2013,08,22,15,41,26.70
2013,08,22,15,42,26.50
2013,08,22,15,43,26.40
2013,08,22,15,44,26.30
2013,08,22,15,45,26.30
2013,08,22,15,46,26.20
2013,08,22,15,47,26.10
2013,08,22,15,48,26.00
2013,08,22,15,49,25.90
2013,08,22,15,50,25.90
2013,08,22,15,51,26.00
2013,08,22,15,52,26.10
2013,08,22,15,53,26.20
2013,08,22,15,54,26.30
2013,08,22,15,55,26.30
2013,08,22,15,56,26.30
2013,08,22,15,57,26.30
2013,08,22,15,58,26.30
2013,08,22,15,59,26.20
2013,08,22,16,00,26.10
2013,08,22,16,01,26.00
2013,08,22,16,02,25.80
2013,08,22,16,03,25.70
2013,08,22,16,04,25.60
2013,08,22,16,05,25.50
2013,08,22,16,06,25.40
2013,08,22,16,07,25.30
2013,08,22,16,08,25.30
2013,08,22,16,09,25.30
2013,08,22,16,10,25.30
2013,08,22,16,11,25.20
2013,08,22,16,12,25.30
2013,08,22,16,13,25.30
2013,08,22,16,14,25.20
2013,08,22,16,15,25.20
2013,08,22,16,16,25.20
2013,08,22,16,17,25.20
2013,08,22,16,18,25.20
2013,08,22,16,19,25.30
2013,08,22,16,20,25.40
2013,08,22,16,21,25.50
2013,08,22,16,22,25.60
2013,08,22,16,23,25.70
2013,08,22,16,24,25.80
2013,08,22,16,25,26.00
2013,08,22,16,26,26.10
2013,08,22,16,27,26.20
2013,08,22,16,28,26.20
2013,08,22,16,29,26.30
2013,08,22,16,30,26.30
2013,08,22,16,31,26.40
2013,08,22,16,32,26.50
2013,08,22,16,33,26.60
2013,08,22,16,34,26.70
2013,08,22,16,35,26.70
2013,08,22,16,36,26.80
2013,08,22,16,37,26.90
2013,08,22,16,38,26.90
2013,08,22,16,39,27.00
2013,08,22,16,40,27.00
2013,08,22,16,41,27.10
2013,08,22,16,42,27.20
2013,08,22,16,43,27.30
2013,08,22,16,44,27.30
2013,08,22,16,45,27.40
2013,08,22,16,46,27.50
2013,08,22,16,47,27.60
2013,08,22,16,48,27.70
2013,08,22,16,49,27.80
2013,08,22,16,50,27.80
2013,08,22,16,51,27.80
2013,08,22,16,52,27.80
2013,08,22,16,53,27.80
2013,08,22,16,54,27.80
2013,08,22,16,55,27.80
2013,08,22,16,56,27.80
2013,08,22,16,57,27.80
2013,08,22,16,58,27.80
2013,08,22,16,59,27.80
2013,08,22,17,00,27.80
2013,08,22,17,01,27.80
2013,08,22,17,02,27.70
2013,08,22,17,03,27.60
2013,08,22,17,04,27.50
2013,08,22,17,05,27.30
2013,08,22,17,06,27.20
2013,08,22,17,07,27.10
2013,08,22,17,08,27.00
2013,08,22,17,09,26.90
2013,08,22,17,10,26.80
2013,08,22,17,11,26.80
2013,08,22,17,12,26.80
2013,08,22,17,13,26.80
2013,08,22,17,14,26.80
2013,08,22,17,15,26.80
2013,08,22,17,16,26.80
2013,08,22,17,17,26.60
2013,08,22,17,18,26.50
2013,08,22,17,19,26.30